Location: Beadle
(51.4667°N, 109.0000°W)
Time: 11:37:57
(UTC+00:00)

BEESAT 2 - Visible Passes

Search period start: 25 June 2022 00:00
Search period end: 05 July 2022 00:00
Orbit: 485 x 508 km, 64.9° (Epoch: 24 June)

Date Brightness Start Highest point End Pass type
(mag) Time Alt. Az. Time Alt. Az. Time Alt. Az.
25 Jun ? 05:00:57 10° WNW 05:04:13 26° WSW 05:07:29 10° S visible
26 Jun ? 04:39:03 10° WNW 04:42:27 29° WSW 04:45:48 10° S visible
27 Jun ? 04:17:10 10° WNW 04:20:38 32° WSW 04:24:05 10° S visible
